Time,TemperatureF,DewpointF,PressureIn,WindDirection,WindDirectionDegrees,WindSpeedMPH,WindSpeedGustMPH,Humidity,HourlyPrecipIn,Conditions,Clouds,dailyrainin,SoftwareType,DateUTC
2013-03-03 00:00:00,42.4,5.3,30.25,SW,229,0.0,0.0,21,0.00,,---,0.00,VWS V13.01,2013-03-03 07:00:00,
2013-03-03 00:06:00,42.3,5.1,30.25,SW,229,0.0,0.0,21,0.00,,---,0.00,VWS V13.01,2013-03-03 07:06:00,
2013-03-03 00:11:00,41.4,4.4,30.25,SW,236,0.0,0.0,21,0.00,,---,0.00,VWS V13.01,2013-03-03 07:11:00,
2013-03-03 00:16:00,41.5,4.5,30.25,SW,236,0.0,0.0,21,0.00,,---,0.00,VWS V13.01,2013-03-03 07:16:00,
2013-03-03 00:21:00,41.5,4.5,30.25,SW,236,0.0,0.0,21,0.00,,---,0.02,VWS V13.01,2013-03-03 07:21:00,
2013-03-03 00:26:00,41.4,4.4,30.25,SW,236,0.0,0.0,21,0.00,,---,0.02,VWS V13.01,2013-03-03 07:26:00,
2013-03-03 00:32:00,41.0,4.1,30.25,WSW,240,0.0,4.0,21,0.00,,---,0.02,VWS V13.01,2013-03-03 07:32:00,
2013-03-03 00:37:00,41.5,4.5,30.25,WSW,239,0.0,4.0,21,0.00,,---,0.02,VWS V13.01,2013-03-03 07:37:00,
2013-03-03 00:42:00,41.5,6.5,30.25,WSW,240,0.0,4.0,23,0.00,,---,0.02,VWS V13.01,2013-03-03 07:42:00,
2013-03-03 00:47:00,41.7,6.7,30.22,WSW,239,0.0,4.0,23,0.00,,---,0.02,VWS V13.01,2013-03-03 07:47:00,
2013-03-03 00:52:00,41.7,6.7,30.22,WSW,240,0.0,4.0,23,0.00,,---,0.02,VWS V13.01,2013-03-03 07:52:00,
2013-03-03 00:57:00,41.2,6.2,30.22,WSW,240,0.0,4.0,23,0.00,,---,0.02,VWS V13.01,2013-03-03 07:57:00,
2013-03-03 01:02:00,41.0,6.1,30.22,WSW,240,0.0,0.0,23,0.00,,---,0.02,VWS V13.01,2013-03-03 08:02:00,
2013-03-03 01:07:00,40.6,5.8,30.22,WSW,240,0.0,0.0,23,0.00,,---,0.02,VWS V13.01,2013-03-03 08:07:00,
2013-03-03 01:12:00,40.3,5.4,30.22,WSW,240,0.0,0.0,23,0.00,,---,0.02,VWS V13.01,2013-03-03 08:12:00,
2013-03-03 01:18:00,40.3,8.1,30.22,WSW,239,0.0,0.0,26,0.00,,---,0.02,VWS V13.01,2013-03-03 08:18:00,
2013-03-03 01:23:00,40.3,8.1,30.22,WSW,240,0.0,0.0,26,0.00,,---,0.02,VWS V13.01,2013-03-03 08:23:00,
2013-03-03 01:28:00,40.3,8.1,30.22,WSW,240,0.0,0.0,26,0.00,,---,0.02,VWS V13.01,2013-03-03 08:28:00,
2013-03-03 01:33:00,39.9,7.8,30.22,WSW,240,0.0,0.0,26,0.00,,---,0.02,VWS V13.01,2013-03-03 08:33:00,
2013-03-03 01:38:00,39.7,9.3,30.22,WSW,240,0.0,0.0,28,0.00,,---,0.02,VWS V13.01,2013-03-03 08:38:00,
2013-03-03 01:43:00,39.2,8.9,30.22,WSW,240,0.0,0.0,28,0.00,,---,0.02,VWS V13.01,2013-03-03 08:43:00,
2013-03-03 01:48:00,39.4,9.8,30.22,WSW,239,0.0,0.0,29,0.00,,---,0.02,VWS V13.01,2013-03-03 08:48:00,
2013-03-03 01:53:00,39.2,9.6,30.22,SW,226,0.0,0.0,29,0.00,,---,0.02,VWS V13.01,2013-03-03 08:53:00,
2013-03-03 01:58:00,39.0,9.5,30.22,WSW,239,2.7,2.7,29,0.00,,---,0.02,VWS V13.01,2013-03-03 08:58:00,
2013-03-03 02:03:00,38.8,9.3,30.22,WSW,237,0.0,2.7,29,0.00,,---,0.02,VWS V13.01,2013-03-03 09:03:00,
2013-03-03 02:09:00,38.8,9.3,30.22,WSW,239,0.0,2.7,29,0.00,,---,0.02,VWS V13.01,2013-03-03 09:09:00,
2013-03-03 02:14:00,39.4,9.8,30.22,WSW,239,0.0,2.7,29,0.00,,---,0.02,VWS V13.01,2013-03-03 09:14:00,
2013-03-03 02:19:00,39.2,9.6,30.22,WSW,244,3.1,3.1,29,0.00,,---,0.02,VWS V13.01,2013-03-03 09:19:00,
2013-03-03 02:24:00,38.8,9.3,30.22,WSW,248,0.0,3.1,29,0.00,,---,0.02,VWS V13.01,2013-03-03 09:24:00,
2013-03-03 02:29:00,39.2,9.6,30.22,WSW,248,0.0,3.1,29,0.00,,---,0.02,VWS V13.01,2013-03-03 09:29:00,
2013-03-03 02:34:00,39.2,9.6,30.22,WSW,248,0.0,3.1,29,0.00,,---,0.02,VWS V13.01,2013-03-03 09:34:00,
2013-03-03 02:39:00,39.2,9.6,30.22,WSW,248,0.0,3.1,29,0.00,,---,0.02,VWS V13.01,2013-03-03 09:39:00,
2013-03-03 02:44:00,38.5,9.8,30.22,East,85,0.0,3.1,30,0.00,,---,0.02,VWS V13.01,2013-03-03 09:44:00,
2013-03-03 02:49:00,37.6,8.2,30.19,East,89,0.0,3.1,29,0.00,,---,0.02,VWS V13.01,2013-03-03 09:49:00,
2013-03-03 02:54:00,37.4,8.1,30.19,East,89,0.0,3.1,29,0.00,,---,0.02,VWS V13.01,2013-03-03 09:54:00,
2013-03-03 02:59:00,36.9,8.3,30.19,East,90,0.0,3.1,30,0.00,,---,0.02,VWS V13.01,2013-03-03 09:59:00,
2013-03-03 03:05:00,36.9,8.3,30.19,East,90,0.0,0.0,30,0.00,,---,0.02,VWS V13.01,2013-03-03 10:05:00,
2013-03-03 03:10:00,36.7,8.2,30.19,East,90,0.0,0.0,30,0.00,,---,0.02,VWS V13.01,2013-03-03 10:10:00,
2013-03-03 03:15:00,36.7,8.2,30.19,East,90,0.0,0.0,30,0.00,,---,0.02,VWS V13.01,2013-03-03 10:15:00,
2013-03-03 03:20:00,36.3,7.9,30.19,East,90,0.0,0.0,30,0.00,,---,0.02,VWS V13.01,2013-03-03 10:20:00,
2013-03-03 03:25:00,36.1,8.4,30.19,East,90,0.0,0.0,31,0.00,,---,0.02,VWS V13.01,2013-03-03 10:25:00,
2013-03-03 03:30:00,36.0,8.3,30.19,East,97,0.0,0.0,31,0.00,,---,0.02,VWS V13.01,2013-03-03 10:30:00,
2013-03-03 03:35:00,36.0,8.3,30.19,East,100,0.0,0.0,31,0.00,,---,0.02,VWS V13.01,2013-03-03 10:35:00,
2013-03-03 03:40:00,35.8,8.1,30.19,East,100,0.0,0.0,31,0.00,,---,0.02,VWS V13.01,2013-03-03 10:40:00,
2013-03-03 03:46:00,35.6,8.0,30.19,SE,139,0.0,0.0,31,0.00,,---,0.02,VWS V13.01,2013-03-03 10:46:00,
2013-03-03 03:51:00,35.1,7.5,30.19,SW,217,0.0,0.0,31,0.00,,---,0.02,VWS V13.01,2013-03-03 10:51:00,
2013-03-03 03:56:00,34.9,8.0,30.19,SW,217,0.0,0.0,32,0.00,,---,0.02,VWS V13.01,2013-03-03 10:56:00,
2013-03-03 04:01:00,35.1,8.2,30.19,SW,217,0.0,0.0,32,0.00,,---,0.02,VWS V13.01,2013-03-03 11:01:00,
2013-03-03 04:06:00,34.9,8.0,30.19,SW,217,0.0,0.0,32,0.00,,---,0.02,VWS V13.01,2013-03-03 11:06:00,
2013-03-03 04:11:00,35.1,8.2,30.19,SW,217,0.0,0.0,32,0.00,,---,0.02,VWS V13.01,2013-03-03 11:11:00,
2013-03-03 04:17:00,34.9,8.0,30.19,SW,217,0.0,0.0,32,0.00,,---,0.02,VWS V13.01,2013-03-03 11:17:00,
2013-03-03 04:22:00,34.9,8.0,30.19,SW,217,0.0,0.0,32,0.00,,---,0.02,VWS V13.01,2013-03-03 11:22:00,
2013-03-03 04:27:00,34.9,8.0,30.19,SW,217,0.0,0.0,32,0.00,,---,0.02,VWS V13.01,2013-03-03 11:27:00,
2013-03-03 04:32:00,34.5,8.4,30.16,SW,217,0.0,0.0,33,0.00,,---,0.02,VWS V13.01,2013-03-03 11:32:00,
2013-03-03 04:37:00,34.5,8.4,30.16,SW,217,0.0,0.0,33,0.00,,---,0.02,VWS V13.01,2013-03-03 11:37:00,
2013-03-03 04:42:00,34.9,8.7,30.16,SW,217,0.0,0.0,33,0.00,,---,0.02,VWS V13.01,2013-03-03 11:42:00,
2013-03-03 04:47:00,34.3,8.2,30.19,WSW,237,0.0,0.0,33,0.00,,---,0.02,VWS V13.01,2013-03-03 11:47:00,
2013-03-03 04:53:00,34.0,7.9,30.19,WSW,246,0.0,0.0,33,0.00,,---,0.02,VWS V13.01,2013-03-03 11:53:00,
2013-03-03 04:58:00,34.2,8.1,30.19,WSW,246,0.0,0.0,33,0.00,,---,0.02,VWS V13.01,2013-03-03 11:58:00,
2013-03-03 05:03:00,34.5,8.4,30.16,WSW,247,2.7,3.1,33,0.00,,---,0.02,VWS V13.01,2013-03-03 12:03:00,
2013-03-03 05:08:00,33.8,7.8,30.16,WSW,247,0.0,3.1,33,0.00,,---,0.02,VWS V13.01,2013-03-03 12:08:00,
2013-03-03 05:13:00,33.8,8.4,30.16,WSW,248,0.0,3.1,34,0.00,,---,0.02,VWS V13.01,2013-03-03 12:13:00,
2013-03-03 05:18:00,33.8,8.4,30.19,WSW,248,0.0,3.1,34,0.00,,---,0.02,VWS V13.01,2013-03-03 12:18:00,
2013-03-03 05:23:00,33.8,9.1,30.19,WSW,247,0.0,3.1,35,0.00,,---,0.02,VWS V13.01,2013-03-03 12:23:00,
2013-03-03 05:28:00,34.0,9.2,30.19,WSW,248,0.0,3.1,35,0.00,,---,0.02,VWS V13.01,2013-03-03 12:28:00,
2013-03-03 05:34:00,34.3,10.2,30.19,WSW,247,0.0,3.1,36,0.00,,---,0.02,VWS V13.01,2013-03-03 12:34:00,
2013-03-03 05:39:00,34.3,10.2,30.19,WSW,247,0.0,3.1,36,0.00,,---,0.02,VWS V13.01,2013-03-03 12:39:00,
2013-03-03 05:44:00,34.2,10.0,30.19,WSW,248,0.0,3.1,36,0.00,,---,0.02,VWS V13.01,2013-03-03 12:44:00,
2013-03-03 05:49:00,34.2,10.0,30.16,WSW,248,0.0,3.1,36,0.00,,---,0.02,VWS V13.01,2013-03-03 12:49:00,
2013-03-03 05:54:00,34.2,10.0,30.16,WSW,248,0.0,3.1,36,0.00,,---,0.02,VWS V13.01,2013-03-03 12:54:00,
2013-03-03 05:59:00,34.3,10.2,30.16,WSW,248,0.0,3.1,36,0.00,,---,0.02,VWS V13.01,2013-03-03 12:59:00,
2013-03-03 06:04:00,34.3,10.8,30.19,WSW,248,0.0,0.0,37,0.00,,---,0.02,VWS V13.01,2013-03-03 13:04:00,
2013-03-03 06:09:00,34.3,10.2,30.19,WSW,248,0.0,0.0,36,0.00,,---,0.02,VWS V13.01,2013-03-03 13:09:00,
2013-03-03 06:15:00,34.2,10.0,30.19,WSW,248,0.0,0.0,36,0.00,,---,0.02,VWS V13.01,2013-03-03 13:15:00,
2013-03-03 06:20:00,34.3,10.2,30.19,WSW,248,0.0,0.0,36,0.00,,---,0.02,VWS V13.01,2013-03-03 13:20:00,
2013-03-03 06:25:00,33.8,9.7,30.19,WSW,248,0.0,0.0,36,0.00,,---,0.02,VWS V13.01,2013-03-03 13:25:00,
2013-03-03 06:30:00,33.1,9.7,30.19,WSW,248,0.0,0.0,37,0.00,,---,0.02,VWS V13.01,2013-03-03 13:30:00,
2013-03-03 06:35:00,33.3,10.4,30.19,WSW,248,0.0,0.0,38,0.00,,---,0.02,VWS V13.01,2013-03-03 13:35:00,
2013-03-03 06:40:00,32.9,10.1,30.19,WSW,248,0.0,0.0,38,0.00,,---,0.02,VWS V13.01,2013-03-03 13:40:00,
2013-03-03 06:45:00,32.9,9.5,30.19,WSW,248,0.0,0.0,37,0.00,,---,0.02,VWS V13.01,2013-03-03 13:45:00,
2013-03-03 06:50:00,32.9,10.1,30.19,SW,230,0.0,0.0,38,0.00,,---,0.02,VWS V13.01,2013-03-03 13:50:00,
2013-03-03 06:56:00,32.7,11.1,30.19,SW,230,0.0,0.0,40,0.00,,---,0.02,VWS V13.01,2013-03-03 13:56:00,
2013-03-03 07:01:00,32.7,9.9,30.19,SW,230,0.0,0.0,38,0.00,,---,0.02,VWS V13.01,2013-03-03 14:01:00,
2013-03-03 07:06:00,33.1,10.8,30.19,WSW,246,0.0,0.0,39,0.00,,---,0.02,VWS V13.01,2013-03-03 14:06:00,
2013-03-03 07:11:00,33.4,10.6,30.19,WSW,246,0.0,0.0,38,0.00,,---,0.02,VWS V13.01,2013-03-03 14:11:00,
2013-03-03 07:16:00,33.8,10.9,30.19,WSW,246,0.0,0.0,38,0.00,,---,0.02,VWS V13.01,2013-03-03 14:16:00,
2013-03-03 07:21:00,34.0,11.1,30.19,WSW,246,0.0,0.0,38,0.00,,---,0.02,VWS V13.01,2013-03-03 14:21:00,
2013-03-03 07:26:00,34.2,11.8,30.19,WSW,246,0.0,0.0,39,0.00,,---,0.02,VWS V13.01,2013-03-03 14:26:00,
2013-03-03 07:31:00,34.9,12.4,30.19,WSW,246,0.0,0.0,39,0.00,,---,0.02,VWS V13.01,2013-03-03 14:31:00,
2013-03-03 07:36:00,35.4,12.9,30.19,WSW,246,0.0,0.0,39,0.00,,---,0.02,VWS V13.01,2013-03-03 14:36:00,
2013-03-03 07:41:00,36.0,12.8,30.19,WSW,246,0.0,0.0,38,0.00,,---,0.02,VWS V13.01,2013-03-03 14:41:00,
2013-03-03 07:46:00,36.7,13.5,30.19,WSW,246,0.0,0.0,38,0.00,,---,0.02,VWS V13.01,2013-03-03 14:46:00,
2013-03-03 07:51:00,37.4,14.1,30.19,WSW,246,0.0,0.0,38,0.00,,---,0.02,VWS V13.01,2013-03-03 14:51:00,
2013-03-03 07:56:00,38.1,14.8,30.19,WSW,246,0.0,0.0,38,0.00,,---,0.02,VWS V13.01,2013-03-03 14:56:00,
2013-03-03 08:02:00,38.3,14.3,30.19,WSW,246,0.0,0.0,37,0.00,,---,0.02,VWS V13.01,2013-03-03 15:02:00,
2013-03-03 08:07:00,38.8,14.8,30.19,WSW,246,0.0,0.0,37,0.00,,---,0.02,VWS V13.01,2013-03-03 15:07:00,
2013-03-03 08:12:00,39.9,15.8,30.19,ENE,75,0.0,0.0,37,0.00,,---,0.02,VWS V13.01,2013-03-03 15:12:00,
2013-03-03 08:17:00,40.6,15.8,30.19,ESE,103,2.7,2.7,36,0.00,,---,0.02,VWS V13.01,2013-03-03 15:17:00,
2013-03-03 08:22:00,41.0,15.5,30.19,East,95,0.0,2.7,35,0.00,,---,0.02,VWS V13.01,2013-03-03 15:22:00,
2013-03-03 08:27:00,41.7,16.1,30.19,ENE,78,0.0,2.7,35,0.00,,---,0.02,VWS V13.01,2013-03-03 15:27:00,
2013-03-03 08:32:00,42.3,16.6,30.19,East,94,0.0,2.7,35,0.00,,---,0.02,VWS V13.01,2013-03-03 15:32:00,
2013-03-03 08:37:00,43.2,16.7,30.19,East,94,0.0,2.7,34,0.00,,---,0.02,VWS V13.01,2013-03-03 15:37:00,
2013-03-03 08:42:00,44.4,17.1,30.19,East,92,0.0,2.7,33,0.00,,---,0.02,VWS V13.01,2013-03-03 15:42:00,
2013-03-03 08:47:00,45.1,17.8,30.19,East,95,0.0,2.7,33,0.00,,---,0.02,VWS V13.01,2013-03-03 15:47:00,
2013-03-03 08:53:00,45.3,17.2,30.19,East,100,0.0,2.7,32,0.00,,---,0.02,VWS V13.01,2013-03-03 15:53:00,
2013-03-03 08:58:00,46.4,18.2,30.19,NNW,329,0.0,2.7,32,0.00,,---,0.02,VWS V13.01,2013-03-03 15:58:00,
2013-03-03 09:03:00,47.7,19.3,30.19,NE,38,0.0,0.0,32,0.00,,---,0.02,VWS V13.01,2013-03-03 16:03:00,
2013-03-03 09:08:00,48.7,19.5,30.19,NNE,28,0.0,0.0,31,0.00,,---,0.02,VWS V13.01,2013-03-03 16:08:00,
2013-03-03 09:13:00,48.9,19.6,30.19,ENE,58,0.0,0.0,31,0.00,,---,0.02,VWS V13.01,2013-03-03 16:13:00,
2013-03-03 09:18:00,49.1,19.8,30.19,ENE,60,0.0,0.0,31,0.00,,---,0.02,VWS V13.01,2013-03-03 16:18:00,
2013-03-03 09:23:00,49.8,20.4,30.19,ESE,112,2.7,4.0,31,0.00,,---,0.02,VWS V13.01,2013-03-03 16:23:00,
2013-03-03 09:28:00,50.2,20.0,30.19,ESE,112,0.0,4.0,30,0.00,,---,0.02,VWS V13.01,2013-03-03 16:28:00,
2013-03-03 09:34:00,50.9,19.8,30.19,ESE,112,0.0,4.0,29,0.00,,---,0.02,VWS V13.01,2013-03-03 16:34:00,
2013-03-03 09:39:00,52.0,20.7,30.19,ESE,112,0.0,4.0,29,0.00,,---,0.02,VWS V13.01,2013-03-03 16:39:00,
2013-03-03 09:44:00,52.2,20.1,30.19,ESE,112,0.0,4.0,28,0.00,,---,0.02,VWS V13.01,2013-03-03 16:44:00,
2013-03-03 09:49:00,53.1,20.8,30.19,ESE,117,0.0,4.0,28,0.00,,---,0.02,VWS V13.01,2013-03-03 16:49:00,
2013-03-03 09:54:00,53.8,21.5,30.19,ESE,118,0.0,4.0,28,0.00,,---,0.02,VWS V13.01,2013-03-03 16:54:00,
2013-03-03 09:59:00,54.9,22.4,30.19,ESE,106,0.0,4.0,28,0.00,,---,0.02,VWS V13.01,2013-03-03 16:59:00,
2013-03-03 10:04:00,55.0,21.7,30.19,East,101,0.0,0.0,27,0.00,,---,0.02,VWS V13.01,2013-03-03 17:04:00,
2013-03-03 10:09:00,56.3,22.8,30.19,ESE,105,3.1,3.1,27,0.00,,---,0.02,VWS V13.01,2013-03-03 17:09:00,
2013-03-03 10:15:00,56.5,22.9,30.19,East,99,0.0,3.1,27,0.00,,---,0.02,VWS V13.01,2013-03-03 17:15:00,
2013-03-03 10:20:00,57.0,22.5,30.16,East,99,0.0,3.1,26,0.00,,---,0.02,VWS V13.01,2013-03-03 17:20:00,
2013-03-03 10:25:00,57.9,22.3,30.16,ENE,60,0.0,3.1,25,0.00,,---,0.02,VWS V13.01,2013-03-03 17:25:00,
2013-03-03 10:30:00,59.2,22.4,30.16,North,10,0.0,3.1,24,0.00,,---,0.02,VWS V13.01,2013-03-03 17:30:00,
2013-03-03 10:35:00,59.5,23.7,30.16,NNE,29,0.0,3.1,25,0.00,,---,0.02,VWS V13.01,2013-03-03 17:35:00,
2013-03-03 10:40:00,60.1,24.2,30.16,ESE,122,0.0,4.0,25,0.00,,---,0.02,VWS V13.01,2013-03-03 17:40:00,
2013-03-03 10:45:00,60.4,24.5,30.16,East,89,0.0,4.0,25,0.00,,---,0.02,VWS V13.01,2013-03-03 17:45:00,
2013-03-03 10:50:00,61.5,24.4,30.16,North,0,0.0,4.0,24,0.00,,---,0.02,VWS V13.01,2013-03-03 17:50:00,
2013-03-03 10:55:00,62.2,25.0,30.16,East,82,0.0,4.0,24,0.00,,---,0.02,VWS V13.01,2013-03-03 17:55:00,
2013-03-03 11:01:00,62.6,24.3,30.16,NE,56,0.0,0.0,23,0.00,,---,0.02,VWS V13.01,2013-03-03 18:01:00,
2013-03-03 11:06:00,64.0,23.3,30.16,ENE,69,0.0,3.6,21,0.00,,---,0.02,VWS V13.01,2013-03-03 18:06:00,
2013-03-03 11:11:00,64.6,22.6,30.16,NE,50,0.0,3.6,20,0.00,,---,0.02,VWS V13.01,2013-03-03 18:11:00,
2013-03-03 11:16:00,65.8,23.7,30.16,NE,47,2.7,3.6,20,0.00,,---,0.02,VWS V13.01,2013-03-03 18:16:00,
2013-03-03 11:21:00,66.9,17.8,30.16,North,357,2.2,4.0,15,0.00,,---,0.02,VWS V13.01,2013-03-03 18:21:00,
2013-03-03 11:26:00,67.3,18.1,30.16,SE,131,0.0,5.8,15,0.00,,---,0.02,VWS V13.01,2013-03-03 18:26:00,
2013-03-03 11:31:00,67.3,13.0,30.14,ENE,61,0.0,5.8,12,0.00,,---,0.02,VWS V13.01,2013-03-03 18:31:00,
2013-03-03 11:36:00,67.6,18.4,30.14,East,95,3.6,5.8,15,0.00,,---,0.02,VWS V13.01,2013-03-03 18:36:00,
2013-03-03 11:41:00,67.8,18.5,30.14,ESE,110,0.0,5.8,15,0.00,,---,0.02,VWS V13.01,2013-03-03 18:41:00,
2013-03-03 11:47:00,70.0,8.6,30.14,NW,312,5.4,5.8,9,0.00,,---,0.02,VWS V13.01,2013-03-03 18:47:00,
2013-03-03 11:52:00,71.1,15.9,30.14,NW,307,8.3,10.1,12,0.00,,---,0.02,VWS V13.01,2013-03-03 18:52:00,
2013-03-03 11:57:00,71.8,10.0,30.14,NW,318,9.2,10.1,9,0.00,,---,0.02,VWS V13.01,2013-03-03 18:57:00,
2013-03-03 12:00:00,72.3,10.4,30.14,West,263,8.1,11.9,9,0.00,,---,0.02,VWS V13.01,2013-03-03 19:00:00,
2013-03-03 12:05:00,72.1,10.2,30.14,South,177,3.6,3.6,9,0.00,,---,0.02,VWS V13.01,2013-03-03 19:05:00,
2013-03-03 12:10:00,72.9,10.8,30.14,South,173,3.6,7.6,9,0.00,,---,0.02,VWS V13.01,2013-03-03 19:10:00,
2013-03-03 12:15:00,73.0,10.9,30.11,WNW,302,9.2,11.4,9,0.00,,---,0.02,VWS V13.01,2013-03-03 19:15:00,
2013-03-03 12:20:00,73.6,8.7,30.11,WNW,282,15.9,15.9,8,0.00,,---,0.02,VWS V13.01,2013-03-03 19:20:00,
2013-03-03 12:26:00,73.4,8.6,30.11,WSW,248,8.3,15.9,8,0.00,,---,0.02,VWS V13.01,2013-03-03 19:26:00,
2013-03-03 12:31:00,74.3,9.2,30.11,WNW,289,5.8,15.9,8,0.00,,---,0.02,VWS V13.01,2013-03-03 19:31:00,
2013-03-03 12:36:00,74.1,9.1,30.11,WSW,237,8.3,15.9,8,0.00,,---,0.02,VWS V13.01,2013-03-03 19:36:00,
2013-03-03 12:41:00,73.9,9.0,30.11,West,261,8.1,15.9,8,0.00,,---,0.02,VWS V13.01,2013-03-03 19:41:00,
2013-03-03 12:46:00,74.8,9.6,30.11,West,277,6.3,15.9,8,0.00,,---,0.02,VWS V13.01,2013-03-03 19:46:00,
2013-03-03 12:51:00,74.3,9.2,30.11,WNW,296,11.0,15.9,8,0.00,,---,0.02,VWS V13.01,2013-03-03 19:51:00,
2013-03-03 12:56:00,74.5,9.4,30.11,NW,316,10.1,15.9,8,0.00,,---,0.02,VWS V13.01,2013-03-03 19:56:00,
2013-03-03 13:02:00,73.9,9.0,30.11,WNW,292,10.1,13.6,8,0.00,,---,0.02,VWS V13.01,2013-03-03 20:02:00,
2013-03-03 13:07:00,74.5,9.4,30.11,NW,310,10.1,13.6,8,0.00,,---,0.02,VWS V13.01,2013-03-03 20:07:00,
2013-03-03 13:12:00,74.7,9.5,30.11,WNW,297,15.4,15.4,8,0.00,,---,0.02,VWS V13.01,2013-03-03 20:12:00,
2013-03-03 13:17:00,74.3,9.2,30.11,WSW,252,10.1,17.9,8,0.00,,---,0.02,VWS V13.01,2013-03-03 20:17:00,
2013-03-03 13:22:00,75.6,10.2,30.11,WSW,258,9.6,17.9,8,0.00,,---,0.02,VWS V13.01,2013-03-03 20:22:00,
2013-03-03 13:27:00,74.3,9.2,30.11,WNW,303,5.8,17.9,8,0.00,,---,0.02,VWS V13.01,2013-03-03 20:27:00,
2013-03-03 13:32:00,74.5,9.4,30.11,WNW,301,5.8,17.9,8,0.00,,---,0.02,VWS V13.01,2013-03-03 20:32:00,
2013-03-03 13:37:00,74.7,9.5,30.11,West,275,12.8,17.9,8,0.00,,---,0.02,VWS V13.01,2013-03-03 20:37:00,
2013-03-03 13:43:00,74.8,9.6,30.11,SW,233,8.7,17.9,8,0.00,,---,0.02,VWS V13.01,2013-03-03 20:43:00,
2013-03-03 13:48:00,75.4,10.0,30.11,West,269,13.2,17.9,8,0.00,,---,0.02,VWS V13.01,2013-03-03 20:48:00,
2013-03-03 13:53:00,75.4,10.0,30.11,SW,232,12.8,17.9,8,0.00,,---,0.02,VWS V13.01,2013-03-03 20:53:00,
2013-03-03 13:58:00,75.6,10.2,30.11,WNW,297,14.5,17.9,8,0.00,,---,0.02,VWS V13.01,2013-03-03 20:58:00,
2013-03-03 14:03:00,74.5,9.4,30.08,WNW,297,12.3,17.9,8,0.00,,---,0.02,VWS V13.01,2013-03-03 21:03:00,
2013-03-03 14:08:00,74.5,9.4,30.08,NW,325,11.4,17.9,8,0.00,,---,0.02,VWS V13.01,2013-03-03 21:08:00,
2013-03-03 14:13:00,74.8,9.6,30.08,West,268,12.8,18.3,8,0.00,,---,0.02,VWS V13.01,2013-03-03 21:13:00,
2013-03-03 14:18:00,74.7,9.5,30.08,West,272,14.1,18.3,8,0.00,,---,0.02,VWS V13.01,2013-03-03 21:18:00,
2013-03-03 14:23:00,74.7,9.5,30.08,West,270,15.0,18.3,8,0.00,,---,0.02,VWS V13.01,2013-03-03 21:23:00,
2013-03-03 14:28:00,75.7,10.3,30.08,WNW,286,12.8,18.3,8,0.00,,---,0.06,VWS V13.01,2013-03-03 21:28:00,
2013-03-03 14:33:00,75.7,10.3,30.08,WNW,288,13.2,18.3,8,0.04,,---,0.06,VWS V13.01,2013-03-03 21:33:00,
2013-03-03 14:39:00,75.7,10.3,30.08,WNW,290,15.4,18.3,8,0.04,,---,0.06,VWS V13.01,2013-03-03 21:39:00,
2013-03-03 14:44:00,75.7,10.3,30.08,West,274,15.9,18.3,8,0.04,,---,0.06,VWS V13.01,2013-03-03 21:44:00,
2013-03-03 14:49:00,75.4,10.0,30.08,NW,316,17.4,18.3,8,0.04,,---,0.06,VWS V13.01,2013-03-03 21:49:00,
2013-03-03 14:54:00,74.7,9.5,30.08,West,280,15.4,20.1,8,0.04,,---,0.06,VWS V13.01,2013-03-03 21:54:00,
2013-03-03 14:59:00,73.8,2.5,30.08,West,279,12.8,20.1,6,0.04,,---,0.06,VWS V13.01,2013-03-03 21:59:00,
2013-03-03 15:04:00,73.9,2.7,30.08,WNW,289,17.4,19.2,6,0.04,,---,0.06,VWS V13.01,2013-03-03 22:04:00,
2013-03-03 15:09:00,73.4,2.3,30.08,WNW,286,15.0,19.2,6,0.04,,---,0.06,VWS V13.01,2013-03-03 22:09:00,
2013-03-03 15:14:00,73.6,2.4,30.08,WNW,294,8.3,19.2,6,0.04,,---,0.06,VWS V13.01,2013-03-03 22:14:00,
2013-03-03 15:19:00,73.4,8.6,30.11,WNW,296,12.8,19.2,8,0.04,,---,0.06,VWS V13.01,2013-03-03 22:19:00,
2013-03-03 15:25:00,72.9,10.8,30.11,WNW,299,11.0,19.2,9,0.04,,---,0.06,VWS V13.01,2013-03-03 22:25:00,
2013-03-03 15:30:00,72.7,10.6,30.11,WNW,301,15.4,19.2,9,0.04,,---,0.06,VWS V13.01,2013-03-03 22:30:00,
2013-03-03 15:35:00,72.7,10.6,30.11,West,281,8.7,19.2,9,0.04,,---,0.06,VWS V13.01,2013-03-03 22:35:00,
2013-03-03 15:40:00,72.0,1.2,30.11,WNW,285,15.4,19.2,6,0.04,,---,0.06,VWS V13.01,2013-03-03 22:40:00,
2013-03-03 15:45:00,72.7,10.6,30.11,WNW,286,10.5,19.2,9,0.04,,---,0.06,VWS V13.01,2013-03-03 22:45:00,
2013-03-03 15:50:00,72.9,10.8,30.11,West,261,17.4,19.2,9,0.04,,---,0.06,VWS V13.01,2013-03-03 22:50:00,
2013-03-03 15:56:00,72.5,10.5,30.11,WSW,253,8.3,19.2,9,0.04,,---,0.06,VWS V13.01,2013-03-03 22:56:00,
2013-03-03 16:01:00,72.1,10.2,30.08,NW,321,13.2,13.2,9,0.04,,---,0.06,VWS V13.01,2013-03-03 23:01:00,
2013-03-03 16:06:00,71.8,1.1,30.08,WNW,288,11.0,13.2,6,0.00,,---,0.06,VWS V13.01,2013-03-03 23:06:00,
2013-03-03 16:11:00,71.6,1.0,30.08,WNW,295,10.1,13.2,6,0.00,,---,0.06,VWS V13.01,2013-03-03 23:11:00,
2013-03-03 16:16:00,71.6,1.0,30.08,West,280,8.3,13.2,6,0.00,,---,0.06,VWS V13.01,2013-03-03 23:16:00,
2013-03-03 16:21:00,71.4,4.2,30.08,NW,304,10.5,13.2,7,0.00,,---,0.06,VWS V13.01,2013-03-03 23:21:00,
2013-03-03 16:26:00,71.4,4.2,30.08,WNW,285,10.1,13.2,7,0.00,,---,0.06,VWS V13.01,2013-03-03 23:26:00,
2013-03-03 16:31:00,72.0,10.1,30.08,West,280,8.7,13.2,9,0.00,,---,0.06,VWS V13.01,2013-03-03 23:31:00,
2013-03-03 16:36:00,72.3,10.4,30.08,NW,309,7.6,13.2,9,0.00,,---,0.06,VWS V13.01,2013-03-03 23:36:00,
2013-03-03 16:41:00,72.5,10.5,30.08,West,274,8.1,13.2,9,0.00,,---,0.06,VWS V13.01,2013-03-03 23:41:00,
2013-03-03 16:46:00,72.3,10.4,30.08,WNW,290,5.8,13.2,9,0.00,,---,0.06,VWS V13.01,2013-03-03 23:46:00,
2013-03-03 16:51:00,72.7,10.6,30.08,WNW,295,5.8,13.2,9,0.00,,---,0.06,VWS V13.01,2013-03-03 23:51:00,
2013-03-03 16:57:00,73.2,11.1,30.08,WNW,287,10.1,13.2,9,0.00,,---,0.06,VWS V13.01,2013-03-03 23:57:00,
2013-03-03 17:02:00,72.9,10.8,30.08,WNW,284,8.1,8.1,9,0.00,,---,0.06,VWS V13.01,2013-03-04 00:02:00,
2013-03-03 17:07:00,71.8,10.0,30.08,NW,304,8.1,13.2,9,0.00,,---,0.06,VWS V13.01,2013-03-04 00:07:00,
2013-03-03 17:12:00,72.1,10.2,30.08,NW,307,6.3,13.2,9,0.00,,---,0.06,VWS V13.01,2013-03-04 00:12:00,
2013-03-03 17:17:00,71.8,10.0,30.08,West,280,11.0,13.2,9,0.00,,---,0.06,VWS V13.01,2013-03-04 00:17:00,
2013-03-03 17:22:00,71.1,9.4,30.08,WSW,253,12.3,13.2,9,0.00,,---,0.06,VWS V13.01,2013-03-04 00:22:00,
2013-03-03 17:27:00,70.5,3.5,30.08,WSW,255,5.4,13.2,7,0.00,,---,0.06,VWS V13.01,2013-03-04 00:27:00,
2013-03-03 17:32:00,70.0,3.1,30.08,West,280,5.8,13.2,7,0.00,,---,0.06,VWS V13.01,2013-03-04 00:32:00,
2013-03-03 17:37:00,69.6,2.8,30.08,WNW,294,3.6,13.2,7,0.00,,---,0.06,VWS V13.01,2013-03-04 00:37:00,
2013-03-03 17:42:00,69.3,2.6,30.08,West,274,4.9,13.2,7,0.00,,---,0.06,VWS V13.01,2013-03-04 00:42:00,
2013-03-03 17:48:00,69.4,2.7,30.08,West,259,0.0,13.2,7,0.00,,---,0.06,VWS V13.01,2013-03-04 00:48:00,
2013-03-03 17:53:00,69.1,2.4,30.08,WSW,256,3.1,13.2,7,0.00,,---,0.06,VWS V13.01,2013-03-04 00:53:00,
2013-03-03 17:58:00,68.7,2.2,30.08,West,259,4.0,13.2,7,0.00,,---,0.06,VWS V13.01,2013-03-04 00:58:00,
2013-03-03 18:03:00,68.4,1.9,30.08,WSW,254,2.7,2.7,7,0.00,,---,0.06,VWS V13.01,2013-03-04 01:03:00,
2013-03-03 18:08:00,67.8,1.5,30.08,WSW,254,3.6,4.9,7,0.00,,---,0.06,VWS V13.01,2013-03-04 01:08:00,
2013-03-03 18:13:00,67.3,1.1,30.08,West,259,8.3,8.3,7,0.00,,---,0.06,VWS V13.01,2013-03-04 01:13:00,
2013-03-03 18:18:00,66.7,0.7,30.08,WSW,258,0.0,8.3,7,0.00,,---,0.06,VWS V13.01,2013-03-04 01:18:00,
2013-03-03 18:24:00,66.2,0.3,30.08,WSW,242,3.6,8.3,7,0.00,,---,0.06,VWS V13.01,2013-03-04 01:24:00,
2013-03-03 18:29:00,65.8,2.9,30.08,WSW,257,7.2,8.3,8,0.00,,---,0.06,VWS V13.01,2013-03-04 01:29:00,
2013-03-03 18:34:00,65.5,2.6,30.08,WSW,254,4.9,8.3,8,0.00,,---,0.06,VWS V13.01,2013-03-04 01:34:00,
2013-03-03 18:39:00,65.1,2.4,30.08,WSW,250,3.6,8.3,8,0.00,,---,0.06,VWS V13.01,2013-03-04 01:39:00,
2013-03-03 18:44:00,64.8,2.1,30.08,WSW,254,2.7,8.3,8,0.00,,---,0.06,VWS V13.01,2013-03-04 01:44:00,
2013-03-03 18:49:00,64.6,2.0,30.08,WSW,249,2.7,8.3,8,0.00,,---,0.06,VWS V13.01,2013-03-04 01:49:00,
2013-03-03 18:54:00,64.2,1.7,30.08,WSW,241,0.0,8.3,8,0.00,,---,0.06,VWS V13.01,2013-03-04 01:54:00,
2013-03-03 18:59:00,64.6,2.0,30.08,WSW,252,5.4,11.0,8,0.00,,---,0.06,VWS V13.01,2013-03-04 01:59:00,
2013-03-03 19:04:00,65.1,2.4,30.08,West,274,8.3,10.1,8,0.00,,---,0.06,VWS V13.01,2013-03-04 02:04:00,
2013-03-03 19:10:00,65.7,2.8,30.08,WNW,285,6.3,11.0,8,0.00,,---,0.06,VWS V13.01,2013-03-04 02:10:00,
2013-03-03 19:15:00,65.5,7.5,30.08,WSW,246,8.1,11.0,10,0.00,,---,0.06,VWS V13.01,2013-03-04 02:15:00,
2013-03-03 19:20:00,65.5,7.5,30.11,WNW,290,7.6,11.9,10,0.00,,---,0.06,VWS V13.01,2013-03-04 02:20:00,
2013-03-03 19:25:00,65.8,7.8,30.11,WNW,286,8.3,11.9,10,0.00,,---,0.06,VWS V13.01,2013-03-04 02:25:00,
2013-03-03 19:30:00,66.0,7.9,30.11,WNW,288,5.4,11.9,10,0.00,,---,0.06,VWS V13.01,2013-03-04 02:30:00,
2013-03-03 19:35:00,66.2,8.1,30.11,NW,315,8.7,11.9,10,0.00,,---,0.06,VWS V13.01,2013-03-04 02:35:00,
2013-03-03 19:40:00,65.8,7.8,30.11,WNW,283,7.6,11.9,10,0.00,,---,0.06,VWS V13.01,2013-03-04 02:40:00,
2013-03-03 19:46:00,66.0,7.9,30.08,WNW,288,4.0,11.9,10,0.00,,---,0.06,VWS V13.01,2013-03-04 02:46:00,
2013-03-03 19:51:00,65.7,7.6,30.08,WNW,288,5.4,11.9,10,0.00,,---,0.06,VWS V13.01,2013-03-04 02:51:00,
2013-03-03 19:56:00,65.7,7.6,30.08,WNW,288,6.3,11.9,10,0.00,,---,0.06,VWS V13.01,2013-03-04 02:56:00,
2013-03-03 20:01:00,64.6,6.8,30.11,NW,318,3.1,3.1,10,0.00,,---,0.06,VWS V13.01,2013-03-04 03:01:00,
2013-03-03 20:06:00,63.9,1.4,30.11,NW,312,0.0,3.1,8,0.00,,---,0.06,VWS V13.01,2013-03-04 03:06:00,
2013-03-03 20:11:00,63.0,0.7,30.11,WNW,303,2.2,3.1,8,0.00,,---,0.06,VWS V13.01,2013-03-04 03:11:00,
2013-03-03 20:16:00,62.6,0.5,30.11,NW,305,0.0,3.1,8,0.00,,---,0.06,VWS V13.01,2013-03-04 03:16:00,
2013-03-03 20:21:00,62.1,2.6,30.11,WNW,291,0.0,3.1,9,0.00,,---,0.06,VWS V13.01,2013-03-04 03:21:00,
2013-03-03 20:27:00,61.3,2.0,30.11,NW,321,0.0,3.1,9,0.00,,---,0.06,VWS V13.01,2013-03-04 03:27:00,
2013-03-03 20:32:00,61.0,1.8,30.11,NW,312,0.0,3.1,9,0.00,,---,0.06,VWS V13.01,2013-03-04 03:32:00,
2013-03-03 20:37:00,60.6,1.5,30.11,NW,304,0.0,3.1,9,0.00,,---,0.06,VWS V13.01,2013-03-04 03:37:00,
2013-03-03 20:42:00,60.3,1.2,30.11,WNW,299,0.0,3.1,9,0.00,,---,0.06,VWS V13.01,2013-03-04 03:42:00,
2013-03-03 20:47:00,59.9,0.9,30.11,WNW,299,0.0,3.1,9,0.00,,---,0.06,VWS V13.01,2013-03-04 03:47:00,
2013-03-03 20:52:00,59.9,0.9,30.11,WNW,299,0.0,3.1,9,0.00,,---,0.06,VWS V13.01,2013-03-04 03:52:00,
2013-03-03 20:57:00,59.9,0.9,30.11,West,275,0.0,3.1,9,0.00,,---,0.06,VWS V13.01,2013-03-04 03:57:00,
2013-03-03 21:02:00,58.6,0.0,30.11,South,169,2.7,3.1,9,0.00,,---,0.06,VWS V13.01,2013-03-04 04:02:00,
2013-03-03 21:07:00,58.5,-0.2,30.11,South,186,2.7,3.6,9,0.00,,---,0.06,VWS V13.01,2013-03-04 04:07:00,
2013-03-03 21:13:00,58.1,5.8,30.11,South,186,0.0,3.6,12,0.00,,---,0.06,VWS V13.01,2013-03-04 04:13:00,
2013-03-03 21:18:00,58.1,5.8,30.11,South,184,3.1,4.0,12,0.00,,---,0.06,VWS V13.01,2013-03-04 04:18:00,
2013-03-03 21:23:00,58.5,6.1,30.11,SSW,207,0.0,4.0,12,0.00,,---,0.06,VWS V13.01,2013-03-04 04:23:00,
2013-03-03 21:28:00,58.5,6.1,30.11,South,178,0.0,4.0,12,0.00,,---,0.06,VWS V13.01,2013-03-04 04:28:00,
2013-03-03 21:33:00,58.5,6.1,30.11,South,178,0.0,4.0,12,0.00,,---,0.06,VWS V13.01,2013-03-04 04:33:00,
2013-03-03 21:38:00,58.5,6.1,30.11,SSE,166,0.0,4.0,12,0.00,,---,0.06,VWS V13.01,2013-03-04 04:38:00,
2013-03-03 21:43:00,58.5,6.1,30.11,SSE,166,0.0,4.0,12,0.00,,---,0.06,VWS V13.01,2013-03-04 04:43:00,
2013-03-03 21:49:00,57.9,5.6,30.08,SE,135,0.0,4.0,12,0.00,,---,0.06,VWS V13.01,2013-03-04 04:49:00,
2013-03-03 21:54:00,57.9,5.6,30.08,SE,135,0.0,4.0,12,0.00,,---,0.06,VWS V13.01,2013-03-04 04:54:00,
2013-03-03 21:59:00,57.0,4.9,30.08,SSW,211,0.0,4.0,12,0.00,,---,0.06,VWS V13.01,2013-03-04 04:59:00,
2013-03-03 22:00:00,57.0,4.9,30.08,SSW,212,0.0,4.0,12,0.00,,---,0.06,VWS V13.01,2013-03-04 05:00:00,
2013-03-03 22:01:00,57.0,4.9,30.11,SSW,212,0.0,4.0,12,0.00,,---,0.06,VWS V13.01,2013-03-04 05:01:00,
2013-03-03 22:06:00,57.0,4.9,30.11,SSW,212,0.0,0.0,12,0.00,,---,0.06,VWS V13.01,2013-03-04 05:06:00,
2013-03-03 22:12:00,57.0,4.9,30.11,SSW,212,0.0,0.0,12,0.00,,---,0.06,VWS V13.01,2013-03-04 05:12:00,
2013-03-03 22:17:00,56.7,4.6,30.08,SSW,212,0.0,0.0,12,0.00,,---,0.06,VWS V13.01,2013-03-04 05:17:00,
2013-03-03 22:22:00,56.7,4.6,30.08,SSW,212,0.0,0.0,12,0.00,,---,0.06,VWS V13.01,2013-03-04 05:22:00,
2013-03-03 22:27:00,56.3,4.4,30.08,SSW,212,0.0,0.0,12,0.00,,---,0.06,VWS V13.01,2013-03-04 05:27:00,
2013-03-03 22:32:00,55.9,4.1,30.08,SSW,212,0.0,0.0,12,0.00,,---,0.06,VWS V13.01,2013-03-04 05:32:00,
2013-03-03 22:37:00,55.6,3.8,30.08,South,185,4.0,4.0,12,0.00,,---,0.06,VWS V13.01,2013-03-04 05:37:00,
2013-03-03 22:42:00,55.6,3.8,30.08,South,191,0.0,4.0,12,0.00,,---,0.06,VWS V13.01,2013-03-04 05:42:00,
2013-03-03 22:47:00,55.4,3.7,30.08,South,191,0.0,4.0,12,0.00,,---,0.06,VWS V13.01,2013-03-04 05:47:00,
2013-03-03 22:52:00,55.4,3.7,30.08,SSE,151,2.7,4.0,12,0.00,,---,0.06,VWS V13.01,2013-03-04 05:52:00,
2013-03-03 22:57:00,55.4,3.7,30.08,SSE,153,3.1,4.0,12,0.00,,---,0.06,VWS V13.01,2013-03-04 05:57:00,
2013-03-03 23:02:00,55.0,5.1,30.08,South,175,0.0,0.0,13,0.00,,---,0.06,VWS V13.01,2013-03-04 06:02:00,
2013-03-03 23:08:00,54.9,5.0,30.08,SW,218,0.0,4.0,13,0.00,,---,0.06,VWS V13.01,2013-03-04 06:08:00,
2013-03-03 23:13:00,55.4,3.7,30.08,SW,229,0.0,4.0,12,0.00,,---,0.06,VWS V13.01,2013-03-04 06:13:00,
2013-03-03 23:18:00,55.4,3.7,30.08,SW,229,0.0,4.0,12,0.00,,---,0.06,VWS V13.01,2013-03-04 06:18:00,
2013-03-03 23:23:00,54.5,4.7,30.08,SW,223,0.0,4.0,13,0.00,,---,0.06,VWS V13.01,2013-03-04 06:23:00,
2013-03-03 23:28:00,54.5,4.7,30.08,SW,234,0.0,4.0,13,0.00,,---,0.06,VWS V13.01,2013-03-04 06:28:00,
2013-03-03 23:33:00,55.6,3.8,30.08,SSW,203,0.0,4.0,12,0.00,,---,0.06,VWS V13.01,2013-03-04 06:33:00,
2013-03-03 23:38:00,55.2,5.2,30.08,South,182,3.1,4.9,13,0.00,,---,0.06,VWS V13.01,2013-03-04 06:38:00,
2013-03-03 23:43:00,55.6,3.8,30.08,SSW,210,2.7,4.9,12,0.00,,---,0.06,VWS V13.01,2013-03-04 06:43:00,
2013-03-03 23:49:00,56.7,4.6,30.08,West,259,3.1,4.9,12,0.00,,---,0.06,VWS V13.01,2013-03-04 06:49:00,
2013-03-03 23:54:00,55.6,3.8,30.08,WSW,257,0.0,4.9,12,0.00,,---,0.06,VWS V13.01,2013-03-04 06:54:00,
2013-03-03 23:59:00,55.8,3.9,30.08,SSE,155,3.1,4.9,12,0.00,,---,0.06,VWS V13.01,2013-03-04 06:59:00,